Weather History for New Orleans NAS, LA

Change the Weather History Date:

Sunday, November 10, 2013

  Actual Average Record
Temperature  
Mean Temperature 64 °F -  
Max Temperature 73 °F 70 °F 81 °F (2002)
Min Temperature 54 °F 53 °F 39 °F (2011)
Degree Days  
Heating Degree Days 2    
Growing Degree Days 14 (Base 50)    
Moisture  
Dew Point 54 °F    
Average Humidity 73    
Maximum Humidity 93    
Minimum Humidity 46    
Precipitation  
Precipitation 0.00 in - - ()
Sea Level Pressure  
Sea Level Pressure 30.22 in    
Wind  
Wind Speed 7 mph (NE)    
Max Wind Speed 14 mph    
Max Gust Speed -    
Visibility 10 miles    
Events      
Averages and records for this station are not official NWS values.
T = Trace of Precipitation, MM = Missing Value Source: NWS Daily Summary

Daily Weather History Graph

Daily Weather History Graph

Search for Another Location

Airport:

Trip Planner

Search our weather history database for the weather conditions in past years. The results will help you decide how hot, cold, wet, or windy it might be!

Date:

Astronomy

Nov. 10, 2013 Rise Set
Actual Time 6:21 AM CST 5:06 PM CST
Civil Twilight 5:55 AM CST 5:31 PM CST
Nautical Twilight 5:27 AM CST 6:00 PM CST
Astronomical Twilight 4:59 AM CST 6:28 PM CST
Moon 12:44 PM CST (11/10) No Moon Set
Length of Visible Light 11h 35m
Length of Day
10h 45m
First Quarter, 56% of the Moon is Illuminated
Nov 10
First Quarter
Nov 17
Full
Nov 25
Last Quarter
Dec 2
New
Dec 9
First Quarter

Hourly Weather History & Observations

Time (CST) Temp. Dew Point Humidity Pressure Visibility Wind Dir Wind Speed Gust Speed Precip Events Conditions
12:55 AM 62.1 °F 59.0 °F 90% 30.19 in 9.0 mi NNE 5.8 mph - N/A   Scattered Clouds
1:55 AM 63.0 °F 57.9 °F 84% 30.19 in 10.0 mi NE 8.1 mph - N/A   Overcast
2:55 AM 62.1 °F 57.0 °F 84% 30.19 in 10.0 mi NE 8.1 mph - N/A   Overcast
6:55 AM 60.1 °F 54.0 °F 80% 30.24 in 10.0 mi NE 4.6 mph - N/A   Mostly Cloudy
7:55 AM 63.0 °F 55.0 °F 75% 30.26 in 10.0 mi NE 9.2 mph - N/A   Mostly Cloudy
8:55 AM 66.9 °F 55.0 °F 66% 30.27 in 10.0 mi NE 9.2 mph - N/A   Mostly Cloudy
9:55 AM 71.1 °F 55.0 °F 57% 30.26 in 10.0 mi NE 11.5 mph - N/A   Mostly Cloudy
10:55 AM 73.0 °F 54.0 °F 51% 30.25 in 10.0 mi NE 13.8 mph - N/A   Scattered Clouds
11:55 AM 73.9 °F 53.1 °F 48% 30.23 in 10.0 mi ENE 12.7 mph - N/A   Scattered Clouds
12:55 PM 73.0 °F 53.1 °F 49% 30.20 in 10.0 mi East 9.2 mph - N/A   Scattered Clouds
1:55 PM 73.9 °F 54.0 °F 50% 30.19 in 10.0 mi ENE 10.4 mph - N/A   Scattered Clouds
2:55 PM 73.9 °F 52.0 °F 46% 30.19 in 10.0 mi ENE 6.9 mph - N/A   Partly Cloudy
3:55 PM 73.0 °F 51.1 °F 46% 30.19 in 10.0 mi ENE 6.9 mph - N/A   Partly Cloudy
4:55 PM 64.9 °F 55.9 °F 73% 30.20 in 10.0 mi Calm Calm - N/A   Clear
5:55 PM 60.1 °F 55.9 °F 86% 30.21 in 10.0 mi Calm Calm - N/A   Scattered Clouds
6:55 PM 57.9 °F 55.0 °F 90% 30.22 in 10.0 mi Calm Calm - N/A   Scattered Clouds
7:55 PM 57.0 °F 54.0 °F 89% 30.23 in 10.0 mi Calm Calm - N/A   Scattered Clouds
8:55 PM 55.9 °F 53.1 °F 90% 30.24 in 10.0 mi Calm Calm - N/A   Scattered Clouds
9:55 PM 55.0 °F 52.0 °F 89% 30.24 in 9.0 mi Calm Calm - N/A   Partly Cloudy
10:55 PM 54.0 °F 52.0 °F 93% 30.23 in 7.0 mi Calm Calm - N/A   Partly Cloudy
11:55 PM 54.0 °F 51.1 °F 90% 30.22 in 10.0 mi NNE 4.6 mph - N/A   Clear